Miscellaneous Local Product
Issued by NWS North Platte, NE

Home | Current Version | Previous Version | Text Only | Print | Product List | Glossary On
Versions: 1 2 3 4 5 6 7 8 9 10 11 12 13 14 15 16 17 18 19 20 21 22 23 24 25 26 27 28 29 30 31 32 33 34 35 36 37 38 39 40 41 42 43 44 45 46 47 48 49 50
000
AXUS43 KLBF 210410
MISLBF


WESTERN AND NORTH CENTRAL NEBRASKA HOURLY WEATHER ROUNDUP
NATIONAL WEATHER SERVICE NORTH PLATTE NE
1100 PM CDT WED AUG 20 2014

***STATIONS NOT REPORTING VARIABLES SUCH AS SKY/WEATHER OR
PRESSURE ARE PROVIDED BY THE NEBRASKA DEPARTMENT OF
ROADS...RAWS...AND APRS NETWORKS...AND ARE NOT UNDER
NATIONAL WEATHER SERVICE QUALITY CONTROL***

...OBSERVATIONS IN AND NEAR THE EASTERN PANHANDLE OF NEBRASKA...

CITY           SKY/WX    TMP DP  RH WIND       PRES   REMARKS
PINE RIDGE     PTCLDY    70  55  59 CALM      29.82R
CHADRON        PTCLDY    69  52  54 CALM      29.81R
ALLIANCE       PTCLDY    68  53  58 SW6       29.86S
SIDNEY         LGT RAIN  67  60  78 W14       29.96R
WHITECLAY        N/A     66  55  68 CALM        N/A
RUSHVILLE        N/A     70  52  52 N14         N/A
GORDON           N/A     74  61  64 N15         N/A
CRESCENT LAKE    N/A     74  52  46 SW9         N/A
LISCO            N/A     77  58  50 NW3         N/A
BIG SPRINGS      N/A     70  63  79 CALM        N/A
$$

...OBSERVATIONS IN NORTH CENTRAL NEBRASKA...

CITY           SKY/WX    TMP DP  RH WIND       PRES   REMARKS
VALENTINE      PTCLDY    78  64  61 SW10      29.74R
THEDFORD       MOCLDY    77  62  59 S13       29.79S
AINSWORTH      MOCLDY    77  71  81 S7        29.74F
O`NEILL        PTCLDY    80  74  82 SW9       29.76R
ORD            MOCLDY    79  72  79 SW9       29.75R
BROKEN BOW     MOCLDY    72  68  87 CALM      29.75F
BROWNLEE         N/A     82  66  59 S7          N/A
SPRINGVIEW       N/A     78  72  81 NE3         N/A
ROSE             N/A     81  78  91 E10         N/A  HX  90
NEWPORT          N/A     80  75  83 S10         N/A
SARGENT          N/A     75  72  90 CALM        N/A
COMSTOCK         N/A     82  78  89 SE3         N/A  HX  92
CHAMBERS         N/A     77  72  84 S5          N/A
EWING            N/A     77  73  88 SE3         N/A
$$

...OBSERVATIONS IN SOUTHWEST NEBRASKA AND FAR NORTHEAST COLORADO...

CITY           SKY/WX    TMP DP  RH WIND       PRES   REMARKS
WRAY             N/A     72  58  62 CALM      29.85S
IMPERIAL       MOCLDY    69  65  86 CALM      29.82F
OGALLALA       PTCLDY    67  60  78 N6        29.83R
NORTH PLATTE   MOCLDY    73  61  65 S7        29.82R
MCCOOK         MOCLDY    81  59  47 N15       29.79R
LEXINGTON      MOCLDY    74  69  86 CALM      29.78S
PAXTON           N/A     75  65  71 CALM        N/A
SUTHERLAND       N/A     83  66  56 S8          N/A
BRADY            N/A     69  65  86 SW6         N/A
GOTHENBURG       N/A     77  60  55 CALM        N/A
CALLAWAY         N/A     70  66  86 SE6         N/A
$$

...SOME WEATHER OBSERVATIONS FROM AROUND THE REGION...

CITY           SKY/WX    TMP DP  RH WIND       PRES   REMARKS
DENVER         CLOUDY    68  53  58 NW7       30.03R
LARAMIE        MOCLDY    55  45  68 W7        30.15R
CHEYENNE       CLOUDY    67  47  48 CALM      30.05R
SCOTTSBLUFF    MOCLDY    73  58  59 CALM      29.88R
RAPID CITY     CLEAR     68  57  68 N13       29.82R
PIERRE         CLEAR     75  72  90 SE8       29.66R
WINNER         FAIR      76  69  79 SE6       29.69S
SIOUX FALLS    CLOUDY    74  71  91 SE9       29.75F
OMAHA          PTCLDY    81  72  74 SE16      29.78S
GRAND ISLAND   CLOUDY    81  70  69 S10       29.75F
KANSAS CITY    CLEAR     80  70  71 S13       29.88R
WICHITA        PTCLDY    82  65  56 S15       29.85R
HAYS           PTCLDY    84  61  45 S16       29.79R
LIBERAL        CLEAR     84  57  39 S15       29.87R
GOODLAND       PTCLDY    72  62  71 CALM      29.86R
$$



USA.gov is the U.S. government's official web portal to all federal, state and local government web resources and services.